Location: Clanezzo
(45.7500°N, 9.6000°E)
Time: 14:04:11
(UTC+00:00)

CZ-2C R/B - Pass Details

Date: 12 May 2021
Orbit: 640 x 703 km, 98.3° (Epoch: 19 June)

Event Time Altitude Azimuth Distance (km) Brightness Sun altitude
Rises 20:04:49 0° 16° (NNE) 2,975 7.5 -12.4°
Reaches altitude 10° 20:07:03 10° 19° (NNE) 2,067 6.6 -12.7°
Maximum altitude 20:11:32 66° 102° (ESE) 723 3.7 -13.3°
Drops below altitude 10° 20:16:03 10° 185° (S) 2,086 5.9 -13.8°
Enters shadow 20:16:21 - 185° (S) 2,205 6.0 -13.9°
